Time,TemperatureF,DewpointF,PressureIn,WindDirection,WindDirectionDegrees,WindSpeedMPH,WindSpeedGustMPH,Humidity,HourlyPrecipIn,Conditions,Clouds,dailyrainin,SoftwareType,DateUTC
2013-03-20 00:00:00,68.5,64.2,29.98,ESE,123,0.0,0.0,86,0.00,,CLR,0.00,VWS V14.01,2013-03-20 04:00:00,
2013-03-20 00:05:00,68.3,64.0,29.97,SE,124,0.0,0.0,86,0.00,,,0.00,VWS V14.01,2013-03-20 04:05:00,
2013-03-20 00:10:00,68.3,63.6,29.98,SE,124,0.0,0.0,85,0.00,,,0.00,VWS V14.01,2013-03-20 04:10:00,
2013-03-20 00:15:00,68.3,63.6,29.98,SE,124,0.0,1.0,85,0.00,,,0.00,VWS V14.01,2013-03-20 04:15:00,
2013-03-20 00:20:00,68.2,63.9,29.99,SE,135,0.0,1.0,86,0.00,,,0.00,VWS V14.01,2013-03-20 04:20:00,
2013-03-20 00:25:00,68.2,63.9,29.99,SE,135,0.0,1.0,86,0.00,,,0.00,VWS V14.01,2013-03-20 04:25:00,
2013-03-20 00:30:00,68.1,63.8,29.98,SE,135,0.0,1.0,86,0.00,,,0.00,VWS V14.01,2013-03-20 04:30:00,
2013-03-20 00:35:00,68.0,63.7,29.99,SE,135,0.0,1.0,86,0.00,,,0.00,VWS V14.01,2013-03-20 04:35:00,
2013-03-20 00:40:00,68.0,64.0,29.98,SE,135,0.0,1.0,87,0.00,,,0.00,VWS V14.01,2013-03-20 04:40:00,
2013-03-20 00:45:00,68.0,64.0,29.98,SE,135,0.0,1.0,87,0.00,,,0.00,VWS V14.01,2013-03-20 04:45:00,
2013-03-20 00:50:00,68.0,64.0,29.98,SE,135,0.0,1.0,87,0.00,,,0.00,VWS V14.01,2013-03-20 04:50:00,
2013-03-20 00:55:00,67.9,63.9,29.98,SE,135,0.0,1.0,87,0.00,,,0.00,VWS V14.01,2013-03-20 04:55:00,
2013-03-20 01:00:00,67.8,63.8,29.99,SE,135,0.0,0.0,87,0.00,,OVC070,0.00,VWS V14.01,2013-03-20 05:00:00,
2013-03-20 01:05:00,67.8,63.8,29.98,SE,135,0.0,0.0,87,0.00,,OVC070,0.00,VWS V14.01,2013-03-20 05:05:00,
2013-03-20 01:10:00,67.6,63.6,29.98,SE,135,0.0,0.0,87,0.00,,OVC070,0.00,VWS V14.01,2013-03-20 05:10:00,
2013-03-20 01:15:00,67.5,63.5,29.98,WSW,253,0.0,3.0,87,0.00,,OVC070,0.00,VWS V14.01,2013-03-20 05:15:00,
2013-03-20 01:20:00,67.0,63.0,29.99,WSW,253,0.0,3.0,87,0.00,,OVC070,0.00,VWS V14.01,2013-03-20 05:20:00,
2013-03-20 01:25:00,66.8,63.1,29.99,WSW,247,0.0,3.0,88,0.00,,OVC070,0.00,VWS V14.01,2013-03-20 05:25:00,
2013-03-20 01:30:00,66.8,63.1,29.98,WSW,249,0.0,3.0,88,0.00,,OVC070,0.00,VWS V14.01,2013-03-20 05:30:00,
2013-03-20 01:35:00,66.5,63.2,29.98,WSW,245,0.0,3.0,89,0.00,,OVC070,0.00,VWS V14.01,2013-03-20 05:35:00,
2013-03-20 01:40:00,66.4,62.7,29.98,WSW,249,0.0,3.0,88,0.00,,OVC070,0.00,VWS V14.01,2013-03-20 05:40:00,
2013-03-20 01:45:00,66.3,63.0,29.98,WSW,248,0.0,3.0,89,0.00,,OVC070,0.00,VWS V14.01,2013-03-20 05:45:00,
2013-03-20 01:50:00,66.0,62.3,29.97,WSW,248,0.0,3.0,88,0.00,,OVC070,0.00,VWS V14.01,2013-03-20 05:50:00,
2013-03-20 01:55:00,65.8,62.5,29.98,WSW,247,0.0,3.0,89,0.00,,OVC070,0.00,VWS V14.01,2013-03-20 05:55:00,
2013-03-20 02:00:00,65.8,62.5,29.98,WSW,245,0.0,0.0,89,0.00,,,0.00,VWS V14.01,2013-03-20 06:00:00,
2013-03-20 02:05:00,65.6,62.3,29.97,WSW,252,0.0,0.0,89,0.00,,,0.00,VWS V14.01,2013-03-20 06:05:00,
2013-03-20 02:10:00,65.4,62.4,29.98,WSW,251,0.0,0.0,90,0.00,,,0.00,VWS V14.01,2013-03-20 06:10:00,
2013-03-20 02:15:00,65.2,62.2,29.97,WSW,251,0.0,0.0,90,0.00,,,0.00,VWS V14.01,2013-03-20 06:15:00,
2013-03-20 02:20:00,65.2,62.8,29.97,WSW,252,0.0,2.0,92,0.00,,,0.00,VWS V14.01,2013-03-20 06:20:00,
2013-03-20 02:25:00,65.5,63.4,29.97,WSW,252,0.0,2.0,93,0.00,,,0.00,VWS V14.01,2013-03-20 06:25:00,
2013-03-20 02:30:00,65.7,63.9,29.97,WSW,251,0.0,2.0,94,0.00,,,0.00,VWS V14.01,2013-03-20 06:30:00,
2013-03-20 02:35:00,65.7,63.9,29.96,WSW,250,0.0,2.0,94,0.00,,,0.00,VWS V14.01,2013-03-20 06:35:00,
2013-03-20 02:40:00,65.9,64.4,29.96,WSW,248,0.0,2.0,95,0.00,,,0.00,VWS V14.01,2013-03-20 06:40:00,
2013-03-20 02:45:00,66.2,64.7,29.96,WSW,248,0.0,2.0,95,0.00,,,0.00,VWS V14.01,2013-03-20 06:45:00,
2013-03-20 02:50:00,66.4,64.9,29.96,WSW,252,0.0,2.0,95,0.00,,,0.00,VWS V14.01,2013-03-20 06:50:00,
2013-03-20 02:55:00,66.5,65.0,29.95,WSW,254,0.0,2.0,95,0.00,,,0.00,VWS V14.01,2013-03-20 06:55:00,
2013-03-20 03:00:00,66.5,65.0,29.95,WSW,254,0.0,0.0,95,0.00,,,0.00,VWS V14.01,2013-03-20 07:00:00,
2013-03-20 03:05:00,66.7,65.2,29.95,WSW,254,0.0,0.0,95,0.00,,,0.00,VWS V14.01,2013-03-20 07:05:00,
2013-03-20 03:10:00,66.8,65.3,29.94,WSW,254,0.0,0.0,95,0.00,,,0.00,VWS V14.01,2013-03-20 07:10:00,
2013-03-20 03:15:00,66.9,65.4,29.94,WSW,254,0.0,0.0,95,0.00,,,0.00,VWS V14.01,2013-03-20 07:15:00,
2013-03-20 03:20:00,66.8,65.3,29.93,WSW,254,0.0,0.0,95,0.00,,,0.00,VWS V14.01,2013-03-20 07:20:00,
2013-03-20 03:25:00,66.9,65.4,29.93,WSW,254,0.0,0.0,95,0.00,,,0.00,VWS V14.01,2013-03-20 07:25:00,
2013-03-20 03:30:00,67.0,65.5,29.94,WSW,254,0.0,0.0,95,0.00,,,0.00,VWS V14.01,2013-03-20 07:30:00,
2013-03-20 03:35:00,66.8,65.3,29.94,WSW,254,0.0,0.0,95,0.00,,,0.00,VWS V14.01,2013-03-20 07:35:00,
2013-03-20 03:40:00,66.7,65.2,29.93,WSW,254,0.0,0.0,95,0.00,,,0.00,VWS V14.01,2013-03-20 07:40:00,
2013-03-20 03:45:00,66.4,64.6,29.93,WSW,255,0.0,0.0,94,0.00,,,0.00,VWS V14.01,2013-03-20 07:45:00,
2013-03-20 03:50:00,66.3,64.5,29.92,WSW,255,0.0,0.0,94,0.00,,,0.00,VWS V14.01,2013-03-20 07:50:00,
2013-03-20 03:55:00,66.3,64.5,29.92,WSW,255,0.0,0.0,94,0.00,,,0.00,VWS V14.01,2013-03-20 07:55:00,
2013-03-20 04:00:00,66.3,64.5,29.92,WSW,256,0.0,0.0,94,0.00,,,0.00,VWS V14.01,2013-03-20 08:00:00,
2013-03-20 04:05:00,66.3,64.5,29.93,WSW,256,0.0,0.0,94,0.00,,,0.00,VWS V14.01,2013-03-20 08:05:00,
2013-03-20 04:10:00,66.1,64.0,29.93,WSW,256,0.0,0.0,93,0.00,,,0.00,VWS V14.01,2013-03-20 08:10:00,
2013-03-20 04:15:00,66.0,63.9,29.93,WSW,256,0.0,0.0,93,0.00,,,0.00,VWS V14.01,2013-03-20 08:15:00,
2013-03-20 04:20:00,65.9,64.1,29.92,WSW,256,0.0,0.0,94,0.00,,,0.00,VWS V14.01,2013-03-20 08:20:00,
2013-03-20 04:25:00,65.9,63.8,29.92,WSW,256,0.0,0.0,93,0.00,,,0.00,VWS V14.01,2013-03-20 08:25:00,
2013-03-20 04:30:00,65.8,63.7,29.93,WSW,256,0.0,0.0,93,0.00,,,0.00,VWS V14.01,2013-03-20 08:30:00,
2013-03-20 04:35:00,65.5,63.1,29.93,WSW,256,0.0,0.0,92,0.00,,,0.00,VWS V14.01,2013-03-20 08:35:00,
2013-03-20 04:40:00,65.3,62.9,29.92,WSW,256,0.0,1.0,92,0.00,,,0.00,VWS V14.01,2013-03-20 08:40:00,
2013-03-20 04:45:00,65.2,62.8,29.91,WSW,255,0.0,1.0,92,0.00,,,0.00,VWS V14.01,2013-03-20 08:45:00,
2013-03-20 04:50:00,65.2,63.1,29.92,WSW,255,0.0,1.0,93,0.00,,,0.00,VWS V14.01,2013-03-20 08:50:00,
2013-03-20 04:55:00,65.2,62.8,29.92,WSW,255,0.0,1.0,92,0.00,,,0.00,VWS V14.01,2013-03-20 08:55:00,
2013-03-20 05:00:00,65.2,63.4,29.93,WSW,241,0.0,0.0,94,0.00,,,0.00,VWS V14.01,2013-03-20 09:00:00,
2013-03-20 05:05:00,65.2,63.4,29.93,WSW,245,0.0,0.0,94,0.00,,,0.00,VWS V14.01,2013-03-20 09:05:00,
2013-03-20 05:10:00,65.3,63.2,29.92,WSW,249,0.0,0.0,93,0.00,,,0.00,VWS V14.01,2013-03-20 09:10:00,
2013-03-20 05:15:00,65.3,63.2,29.92,WSW,246,0.0,0.0,93,0.00,,,0.00,VWS V14.01,2013-03-20 09:15:00,
2013-03-20 05:20:00,65.3,63.2,29.93,WSW,251,0.0,0.0,93,0.00,,,0.00,VWS V14.01,2013-03-20 09:20:00,
2013-03-20 05:25:00,65.4,63.3,29.93,WSW,252,0.0,0.0,93,0.00,,,0.00,VWS V14.01,2013-03-20 09:25:00,
2013-03-20 05:30:00,65.4,63.3,29.93,WSW,251,0.0,0.0,93,0.00,,,0.00,VWS V14.01,2013-03-20 09:30:00,
2013-03-20 05:35:00,65.4,63.3,29.93,WSW,250,0.0,0.0,93,0.00,,,0.00,VWS V14.01,2013-03-20 09:35:00,
2013-03-20 05:40:00,65.5,63.4,29.93,WSW,247,0.0,0.0,93,0.00,,OVC050,0.00,VWS V14.01,2013-03-20 09:40:00,
2013-03-20 05:45:00,65.4,63.3,29.93,WSW,252,0.0,0.0,93,0.00,,OVC050,0.00,VWS V14.01,2013-03-20 09:45:00,
2013-03-20 05:50:00,65.5,63.4,29.93,WSW,248,0.0,0.0,93,0.00,,OVC050,0.00,VWS V14.01,2013-03-20 09:50:00,
2013-03-20 05:55:00,65.5,63.4,29.94,WSW,246,0.0,0.0,93,0.00,,OVC050,0.00,VWS V14.01,2013-03-20 09:55:00,
2013-03-20 06:00:00,65.5,63.4,29.94,WSW,246,0.0,0.0,93,0.00,,OVC050,0.00,VWS V14.01,2013-03-20 10:00:00,
2013-03-20 06:05:00,65.5,63.4,29.93,WSW,248,0.0,0.0,93,0.00,,,0.00,VWS V14.01,2013-03-20 10:05:00,
2013-03-20 06:10:00,65.7,63.6,29.94,WSW,249,0.0,0.0,93,0.00,,,0.00,VWS V14.01,2013-03-20 10:10:00,
2013-03-20 06:15:00,65.7,63.3,29.93,WSW,254,0.0,0.0,92,0.00,,,0.00,VWS V14.01,2013-03-20 10:15:00,
2013-03-20 06:20:00,65.8,63.4,29.94,WSW,254,0.0,0.0,92,0.00,,,0.00,VWS V14.01,2013-03-20 10:20:00,
2013-03-20 06:25:00,65.8,63.4,29.94,WSW,254,0.0,0.0,92,0.00,,,0.00,VWS V14.01,2013-03-20 10:25:00,
2013-03-20 06:30:00,65.9,63.5,29.94,WSW,254,0.0,0.0,92,0.00,,,0.00,VWS V14.01,2013-03-20 10:30:00,
2013-03-20 06:35:00,66.0,63.6,29.94,WSW,254,0.0,0.0,92,0.00,,,0.00,VWS V14.01,2013-03-20 10:35:00,
2013-03-20 06:40:00,66.0,63.6,29.95,WSW,254,0.0,0.0,92,0.00,,,0.00,VWS V14.01,2013-03-20 10:40:00,
2013-03-20 06:45:00,66.2,64.1,29.95,WSW,253,0.0,0.0,93,0.00,,,0.00,VWS V14.01,2013-03-20 10:45:00,
2013-03-20 06:50:00,66.3,64.2,29.95,WSW,252,0.0,0.0,93,0.00,,,0.00,VWS V14.01,2013-03-20 10:50:00,
2013-03-20 06:55:00,66.4,64.6,29.94,WSW,251,0.0,0.0,94,0.00,,,0.00,VWS V14.01,2013-03-20 10:55:00,
2013-03-20 07:00:00,66.6,64.8,29.94,WSW,248,0.0,0.0,94,0.00,,,0.00,VWS V14.01,2013-03-20 11:00:00,
2013-03-20 07:05:00,66.6,64.5,29.94,WSW,255,0.0,0.0,93,0.00,,,0.00,VWS V14.01,2013-03-20 11:05:00,
2013-03-20 07:10:00,66.7,64.6,29.95,WSW,256,0.0,0.0,93,0.00,,,0.00,VWS V14.01,2013-03-20 11:10:00,
2013-03-20 07:15:00,66.8,64.7,29.95,WSW,255,0.0,0.0,93,0.00,,,0.00,VWS V14.01,2013-03-20 11:15:00,
2013-03-20 07:20:00,66.9,64.8,29.95,WSW,255,0.0,0.0,93,0.00,,,0.00,VWS V14.01,2013-03-20 11:20:00,
2013-03-20 07:25:00,66.9,64.8,29.96,WSW,255,0.0,0.0,93,0.00,,,0.00,VWS V14.01,2013-03-20 11:25:00,
2013-03-20 07:30:00,67.0,64.9,29.95,WSW,256,0.0,0.0,93,0.00,,,0.00,VWS V14.01,2013-03-20 11:30:00,
2013-03-20 07:35:00,67.0,64.9,29.96,WSW,256,0.0,0.0,93,0.00,,,0.00,VWS V14.01,2013-03-20 11:35:00,
2013-03-20 07:40:00,67.0,64.9,29.96,WSW,255,0.0,0.0,93,0.00,,,0.00,VWS V14.01,2013-03-20 11:40:00,
2013-03-20 07:45:00,67.0,64.9,29.96,WSW,255,0.0,0.0,93,0.00,,,0.00,VWS V14.01,2013-03-20 11:45:00,
2013-03-20 07:51:00,67.1,65.0,29.96,WSW,255,0.0,0.0,93,0.00,,,0.00,VWS V14.01,2013-03-20 11:51:00,
2013-03-20 07:56:00,67.1,65.0,29.95,WSW,255,0.0,0.0,93,0.00,,,0.00,VWS V14.01,2013-03-20 11:56:00,
2013-03-20 08:01:00,67.1,65.3,29.96,WSW,255,0.0,0.0,94,0.00,,,0.00,VWS V14.01,2013-03-20 12:01:00,
2013-03-20 08:06:00,67.2,65.4,29.95,WSW,255,0.0,0.0,94,0.00,,,0.00,VWS V14.01,2013-03-20 12:06:00,
2013-03-20 08:11:00,67.3,65.5,29.95,WSW,255,0.0,0.0,94,0.00,,,0.00,VWS V14.01,2013-03-20 12:11:00,
2013-03-20 08:16:00,67.3,65.5,29.95,WSW,255,0.0,0.0,94,0.00,,,0.00,VWS V14.01,2013-03-20 12:16:00,
2013-03-20 08:21:00,67.5,65.7,29.95,WSW,253,0.0,0.0,94,0.00,,,0.00,VWS V14.01,2013-03-20 12:21:00,
2013-03-20 08:26:00,67.6,65.8,29.95,WSW,254,0.0,0.0,94,0.00,,,0.00,VWS V14.01,2013-03-20 12:26:00,
2013-03-20 08:31:00,67.6,65.8,29.95,WSW,255,0.0,0.0,94,0.00,,,0.00,VWS V14.01,2013-03-20 12:31:00,
2013-03-20 08:36:00,67.7,65.9,29.96,WSW,255,0.0,0.0,94,0.00,,,0.00,VWS V14.01,2013-03-20 12:36:00,
2013-03-20 08:41:00,67.8,66.0,29.95,WSW,255,0.0,3.0,94,0.00,,,0.00,VWS V14.01,2013-03-20 12:41:00,
2013-03-20 08:46:00,67.9,66.4,29.95,WSW,254,0.0,3.0,95,0.00,,,0.00,VWS V14.01,2013-03-20 12:46:00,
2013-03-20 08:51:00,68.1,66.6,29.96,WSW,243,0.0,3.0,95,0.01,,,0.01,VWS V14.01,2013-03-20 12:51:00,
2013-03-20 08:56:00,68.2,67.3,29.95,SW,232,0.0,3.0,97,0.01,,,0.01,VWS V14.01,2013-03-20 12:56:00,
2013-03-20 09:01:00,68.4,66.9,29.95,SSW,204,1.0,3.0,95,0.01,,CLR,0.01,VWS V14.01,2013-03-20 13:01:00,
2013-03-20 09:06:00,68.7,67.2,29.96,SSW,193,0.0,5.0,95,0.01,,CLR,0.01,VWS V14.01,2013-03-20 13:06:00,
2013-03-20 09:11:00,69.2,68.0,29.96,SSW,194,0.0,5.0,96,0.01,,CLR,0.01,VWS V14.01,2013-03-20 13:11:00,
2013-03-20 09:16:00,69.7,68.5,29.97,SSW,193,0.0,5.0,96,0.01,,CLR,0.01,VWS V14.01,2013-03-20 13:16:00,
2013-03-20 09:21:00,69.9,68.7,29.97,SSW,193,0.0,5.0,96,0.01,,CLR,0.01,VWS V14.01,2013-03-20 13:21:00,
2013-03-20 09:26:00,70.0,69.1,29.98,SSW,192,0.0,5.0,97,0.01,,CLR,0.01,VWS V14.01,2013-03-20 13:26:00,
2013-03-20 09:31:00,70.1,68.9,29.98,SSW,192,0.0,5.0,96,0.01,,CLR,0.01,VWS V14.01,2013-03-20 13:31:00,
2013-03-20 09:36:00,70.2,69.0,29.97,SSW,194,0.0,5.0,96,0.01,,CLR,0.01,VWS V14.01,2013-03-20 13:36:00,
2013-03-20 09:41:00,70.3,69.1,29.97,SSW,196,0.0,5.0,96,0.01,,CLR,0.01,VWS V14.01,2013-03-20 13:41:00,
2013-03-20 09:46:00,70.4,68.9,29.97,SSW,196,1.0,5.0,95,0.01,,CLR,0.01,VWS V14.01,2013-03-20 13:46:00,
2013-03-20 09:51:00,70.5,69.6,29.97,South,184,0.0,5.0,97,0.01,,CLR,0.01,VWS V14.01,2013-03-20 13:51:00,
2013-03-20 09:56:00,70.6,69.4,29.97,SSW,194,3.0,5.0,96,0.01,,CLR,0.01,VWS V14.01,2013-03-20 13:56:00,
2013-03-20 10:01:00,70.7,69.2,29.96,SSE,159,2.0,4.0,95,0.00,,FEW070,0.01,VWS V14.01,2013-03-20 14:01:00,
2013-03-20 10:06:00,70.8,69.9,29.94,SE,134,4.0,5.0,97,0.00,,FEW070,0.01,VWS V14.01,2013-03-20 14:06:00,
2013-03-20 10:11:00,70.9,69.4,29.93,SE,145,2.0,7.0,95,0.00,,FEW070,0.01,VWS V14.01,2013-03-20 14:11:00,
2013-03-20 10:17:00,70.9,69.4,29.93,SSE,162,2.0,7.0,95,0.00,,FEW070,0.01,VWS V14.01,2013-03-20 14:17:00,
2013-03-20 10:22:00,71.0,69.5,29.94,SSE,158,1.0,7.0,95,0.00,,FEW070,0.01,VWS V14.01,2013-03-20 14:22:00,
2013-03-20 10:27:00,71.0,69.5,29.94,ESE,118,2.0,7.0,95,0.00,,FEW070,0.01,VWS V14.01,2013-03-20 14:27:00,
2013-03-20 10:32:00,71.0,68.9,29.96,SSE,158,2.0,7.0,93,0.00,,FEW070,0.01,VWS V14.01,2013-03-20 14:32:00,
2013-03-20 10:37:00,71.2,69.1,29.96,SSW,203,3.0,7.0,93,0.00,,FEW070,0.01,VWS V14.01,2013-03-20 14:37:00,
2013-03-20 10:42:00,71.3,68.9,29.96,SSW,210,4.0,8.0,92,0.00,,FEW070,0.01,VWS V14.01,2013-03-20 14:42:00,
2013-03-20 10:47:00,71.5,68.7,29.96,SSW,208,4.0,8.0,91,0.00,,FEW070,0.01,VWS V14.01,2013-03-20 14:47:00,
2013-03-20 10:52:00,71.7,68.9,29.96,SSE,148,3.0,8.0,91,0.00,,FEW070,0.01,VWS V14.01,2013-03-20 14:52:00,
2013-03-20 10:57:00,72.0,68.9,29.97,South,190,4.0,8.0,90,0.00,,FEW070,0.01,VWS V14.01,2013-03-20 14:57:00,
2013-03-20 11:02:00,72.2,68.4,29.96,South,169,1.0,7.0,88,0.00,,SCT060,0.01,VWS V14.01,2013-03-20 15:02:00,
2013-03-20 11:07:00,72.5,68.4,29.98,South,178,10.0,10.0,87,0.00,,SCT060,0.01,VWS V14.01,2013-03-20 15:07:00,
2013-03-20 11:12:00,72.7,68.3,29.97,South,184,4.0,10.0,86,0.00,,SCT060,0.01,VWS V14.01,2013-03-20 15:12:00,
2013-03-20 11:17:00,73.0,68.2,29.98,South,180,6.0,10.0,85,0.00,,SCT060,0.01,VWS V14.01,2013-03-20 15:17:00,
2013-03-20 11:22:00,73.2,68.4,29.97,South,171,6.0,10.0,85,0.00,,SCT060,0.01,VWS V14.01,2013-03-20 15:22:00,
2013-03-20 11:27:00,73.4,68.6,29.97,South,177,5.0,10.0,85,0.00,,SCT060,0.01,VWS V14.01,2013-03-20 15:27:00,
2013-03-20 11:32:00,73.7,68.9,29.97,South,174,7.0,10.0,85,0.00,,SCT060,0.01,VWS V14.01,2013-03-20 15:32:00,
2013-03-20 11:37:00,73.8,68.3,29.97,SSE,166,0.0,10.0,83,0.00,,SCT060,0.01,VWS V14.01,2013-03-20 15:37:00,
2013-03-20 11:42:00,74.0,68.9,29.97,South,175,3.0,10.0,84,0.00,,SCT060,0.01,VWS V14.01,2013-03-20 15:42:00,
2013-03-20 11:47:00,74.1,68.6,29.97,South,180,6.0,10.0,83,0.00,,SCT060,0.01,VWS V14.01,2013-03-20 15:47:00,
2013-03-20 11:52:00,74.2,68.4,29.97,South,186,6.0,10.0,82,0.00,,SCT060,0.01,VWS V14.01,2013-03-20 15:52:00,
2013-03-20 11:57:00,74.3,68.1,29.97,South,182,0.0,10.0,81,0.00,,SCT060,0.01,VWS V14.01,2013-03-20 15:57:00,
2013-03-20 12:02:00,74.5,69.0,29.96,SSE,149,7.0,7.0,83,0.00,,BKN060,0.01,VWS V14.01,2013-03-20 16:02:00,
2013-03-20 12:07:00,74.6,67.7,29.96,South,181,2.0,8.0,79,0.00,,BKN060,0.01,VWS V14.01,2013-03-20 16:07:00,
2013-03-20 12:12:00,74.9,67.9,29.96,South,171,4.0,8.0,79,0.00,,BKN060,0.01,VWS V14.01,2013-03-20 16:12:00,
2013-03-20 12:17:00,75.1,68.2,29.96,South,179,8.0,8.0,79,0.00,,BKN060,0.01,VWS V14.01,2013-03-20 16:17:00,
2013-03-20 12:22:00,75.4,68.1,29.95,SSW,197,3.0,8.0,78,0.00,,BKN060,0.01,VWS V14.01,2013-03-20 16:22:00,
2013-03-20 12:27:00,75.8,68.5,29.94,South,182,5.0,8.0,78,0.00,,BKN060,0.01,VWS V14.01,2013-03-20 16:27:00,
2013-03-20 12:32:00,76.1,68.0,29.95,SSE,167,5.0,12.0,76,0.00,,BKN060,0.01,VWS V14.01,2013-03-20 16:32:00,
2013-03-20 12:37:00,76.6,68.5,29.94,SSE,168,8.0,12.0,76,0.00,,BKN060,0.01,VWS V14.01,2013-03-20 16:37:00,
2013-03-20 12:42:00,76.9,68.4,29.94,South,186,3.0,12.0,75,0.00,,BKN060,0.01,VWS V14.01,2013-03-20 16:42:00,
2013-03-20 12:47:00,77.1,69.0,29.94,SW,226,3.0,12.0,76,0.00,,BKN060,0.01,VWS V14.01,2013-03-20 16:47:00,
2013-03-20 12:52:00,77.3,68.8,29.93,SSE,165,0.0,12.0,75,0.00,,BKN060,0.01,VWS V14.01,2013-03-20 16:52:00,
2013-03-20 12:57:00,77.4,68.9,29.93,WSW,240,3.0,12.0,75,0.00,,BKN060,0.01,VWS V14.01,2013-03-20 16:57:00,
2013-03-20 13:02:00,77.5,69.0,29.92,South,178,3.0,7.0,75,0.00,,CLR,0.01,VWS V14.01,2013-03-20 17:02:00,
2013-03-20 13:07:00,77.7,68.4,29.92,SW,221,5.0,10.0,73,0.00,,CLR,0.01,VWS V14.01,2013-03-20 17:07:00,
2013-03-20 13:13:00,77.8,68.1,29.92,SSW,213,3.0,10.0,72,0.00,,CLR,0.01,VWS V14.01,2013-03-20 17:13:00,
2013-03-20 13:18:00,77.9,68.6,29.92,WSW,253,6.0,10.0,73,0.00,,CLR,0.01,VWS V14.01,2013-03-20 17:18:00,
2013-03-20 13:23:00,77.9,67.8,29.91,WSW,238,3.0,10.0,71,0.00,,CLR,0.01,VWS V14.01,2013-03-20 17:23:00,
2013-03-20 13:28:00,78.0,67.8,29.91,SW,230,8.0,10.0,71,0.00,,CLR,0.01,VWS V14.01,2013-03-20 17:28:00,
2013-03-20 13:33:00,78.0,67.8,29.90,SSW,208,7.0,10.0,71,0.00,,CLR,0.01,VWS V14.01,2013-03-20 17:33:00,
2013-03-20 13:38:00,78.2,68.0,29.90,SW,223,1.0,10.0,71,0.00,,CLR,0.01,VWS V14.01,2013-03-20 17:38:00,
2013-03-20 13:43:00,78.5,68.3,29.89,SW,229,4.0,10.0,71,0.00,,CLR,0.01,VWS V14.01,2013-03-20 17:43:00,
2013-03-20 13:48:00,78.9,67.9,29.89,WSW,240,4.0,10.0,69,0.00,,CLR,0.01,VWS V14.01,2013-03-20 17:48:00,
2013-03-20 13:53:00,79.1,68.1,29.89,WSW,255,3.0,10.0,69,0.00,,CLR,0.01,VWS V14.01,2013-03-20 17:53:00,
2013-03-20 13:58:00,79.6,69.4,29.89,WSW,251,7.0,10.0,71,0.00,,CLR,0.01,VWS V14.01,2013-03-20 17:58:00,
2013-03-20 14:03:00,79.9,69.2,29.88,SSW,209,5.0,8.0,70,0.00,,SCT038,0.01,VWS V14.01,2013-03-20 18:03:00,
2013-03-20 14:08:00,80.2,68.7,29.87,SSW,211,0.0,8.0,68,0.00,,SCT038,0.01,VWS V14.01,2013-03-20 18:08:00,
2013-03-20 14:13:00,80.3,68.3,29.87,SSW,212,4.0,11.0,67,0.00,,SCT038,0.01,VWS V14.01,2013-03-20 18:13:00,
2013-03-20 14:18:00,80.4,67.6,29.87,South,183,2.0,11.0,65,0.00,,SCT038,0.01,VWS V14.01,2013-03-20 18:18:00,
2013-03-20 14:23:00,80.4,68.0,29.88,SW,235,4.0,11.0,66,0.00,,SCT038,0.01,VWS V14.01,2013-03-20 18:23:00,
2013-03-20 14:28:00,80.3,67.9,29.87,SW,232,4.0,11.0,66,0.00,,SCT038,0.01,VWS V14.01,2013-03-20 18:28:00,
2013-03-20 14:33:00,80.2,67.8,29.87,SSW,210,0.0,11.0,66,0.00,,SCT038,0.01,VWS V14.01,2013-03-20 18:33:00,
2013-03-20 14:38:00,80.1,67.3,29.87,WSW,246,1.0,11.0,65,0.00,,SCT038,0.01,VWS V14.01,2013-03-20 18:38:00,
2013-03-20 14:43:00,80.0,67.2,29.87,WSW,241,5.0,11.0,65,0.00,,SCT038,0.01,VWS V14.01,2013-03-20 18:43:00,
2013-03-20 14:48:00,79.8,67.4,29.86,SSW,204,3.0,11.0,66,0.00,,SCT038,0.01,VWS V14.01,2013-03-20 18:48:00,
2013-03-20 14:53:00,79.1,68.9,29.86,NNE,27,3.0,11.0,71,0.00,,SCT038,0.01,VWS V14.01,2013-03-20 18:53:00,
2013-03-20 14:58:00,77.7,69.2,29.86,WNW,296,0.0,11.0,75,0.00,,SCT038,0.01,VWS V14.01,2013-03-20 18:58:00,
2013-03-20 15:03:00,77.1,69.3,29.86,ENE,74,0.0,0.0,77,0.00,,BKN055,0.01,VWS V14.01,2013-03-20 19:03:00,
2013-03-20 15:08:00,76.9,67.6,29.86,WSW,252,4.0,7.0,73,0.00,,BKN055,0.01,VWS V14.01,2013-03-20 19:08:00,
2013-03-20 15:13:00,76.9,66.4,29.85,WSW,247,4.0,8.0,70,0.00,,BKN055,0.01,VWS V14.01,2013-03-20 19:13:00,
2013-03-20 15:18:00,77.1,66.6,29.85,WSW,257,5.0,9.0,70,0.00,,BKN055,0.01,VWS V14.01,2013-03-20 19:18:00,
2013-03-20 15:23:00,77.5,66.5,29.85,WSW,242,10.0,11.0,69,0.00,,BKN055,0.01,VWS V14.01,2013-03-20 19:23:00,
2013-03-20 15:28:00,77.8,66.4,29.85,West,263,4.0,11.0,68,0.00,,BKN055,0.01,VWS V14.01,2013-03-20 19:28:00,
2013-03-20 15:33:00,78.1,66.3,29.84,West,272,8.0,14.0,67,0.00,,BKN055,0.01,VWS V14.01,2013-03-20 19:33:00,
2013-03-20 15:38:00,78.2,64.1,29.85,WSW,249,5.0,14.0,62,0.00,,BKN055,0.01,VWS V14.01,2013-03-20 19:38:00,
2013-03-20 15:43:00,78.4,62.4,29.84,WNW,291,10.0,14.0,58,0.00,,BKN055,0.01,VWS V14.01,2013-03-20 19:43:00,
2013-03-20 15:48:00,78.6,63.6,29.84,WSW,254,4.0,14.0,60,0.00,,BKN055,0.01,VWS V14.01,2013-03-20 19:48:00,
2013-03-20 15:53:00,78.7,61.7,29.83,WNW,292,5.0,14.0,56,0.00,,BKN055,0.01,VWS V14.01,2013-03-20 19:53:00,
2013-03-20 15:58:00,78.8,62.8,29.83,WSW,250,8.0,14.0,58,0.00,,BKN055,0.01,VWS V14.01,2013-03-20 19:58:00,
2013-03-20 16:03:00,78.8,61.8,29.84,WNW,301,9.0,13.0,56,0.00,,OVC060,0.01,VWS V14.01,2013-03-20 20:03:00,
2013-03-20 16:08:00,78.7,62.2,29.84,WNW,300,5.0,13.0,57,0.00,,OVC060,0.01,VWS V14.01,2013-03-20 20:08:00,
2013-03-20 16:13:00,78.7,61.7,29.83,West,281,7.0,13.0,56,0.00,,OVC060,0.01,VWS V14.01,2013-03-20 20:13:00,
2013-03-20 16:18:00,78.7,62.2,29.82,WNW,296,4.0,13.0,57,0.00,,OVC060,0.01,VWS V14.01,2013-03-20 20:18:00,
2013-03-20 16:23:00,78.8,62.8,29.83,WSW,240,5.0,13.0,58,0.00,,OVC060,0.01,VWS V14.01,2013-03-20 20:23:00,
2013-03-20 16:28:00,78.8,62.3,29.82,West,273,5.0,13.0,57,0.00,,OVC060,0.01,VWS V14.01,2013-03-20 20:28:00,
2013-03-20 16:33:00,78.7,61.7,29.83,WSW,245,6.0,13.0,56,0.00,,OVC060,0.01,VWS V14.01,2013-03-20 20:33:00,
2013-03-20 16:38:00,78.5,62.0,29.82,SW,231,11.0,13.0,57,0.00,,OVC060,0.01,VWS V14.01,2013-03-20 20:38:00,
2013-03-20 16:43:00,78.4,61.9,29.83,West,272,5.0,13.0,57,0.00,,OVC060,0.01,VWS V14.01,2013-03-20 20:43:00,
2013-03-20 16:48:00,78.3,61.8,29.83,West,266,8.0,13.0,57,0.00,,OVC060,0.01,VWS V14.01,2013-03-20 20:48:00,
2013-03-20 16:53:00,78.2,61.7,29.83,West,261,8.0,13.0,57,0.00,,OVC060,0.01,VWS V14.01,2013-03-20 20:53:00,
2013-03-20 16:58:00,78.1,61.1,29.83,West,271,6.0,13.0,56,0.00,,OVC060,0.01,VWS V14.01,2013-03-20 20:58:00,
2013-03-20 17:03:00,77.9,61.0,29.83,WNW,300,12.0,12.0,56,0.00,,FEW055,0.01,VWS V14.01,2013-03-20 21:03:00,
2013-03-20 17:08:00,77.8,61.4,29.82,West,276,4.0,14.0,57,0.00,,FEW055,0.01,VWS V14.01,2013-03-20 21:08:00,
2013-03-20 17:13:00,77.7,61.8,29.82,WSW,255,3.0,14.0,58,0.00,,FEW055,0.01,VWS V14.01,2013-03-20 21:13:00,
2013-03-20 17:18:00,77.6,61.7,29.82,WNW,291,2.0,14.0,58,0.00,,FEW055,0.01,VWS V14.01,2013-03-20 21:18:00,
2013-03-20 17:23:00,77.5,62.1,29.82,WNW,288,11.0,14.0,59,0.00,,FEW055,0.01,VWS V14.01,2013-03-20 21:23:00,
2013-03-20 17:28:00,77.4,61.5,29.82,NW,312,4.0,14.0,58,0.00,,FEW055,0.01,VWS V14.01,2013-03-20 21:28:00,
2013-03-20 17:34:00,77.2,62.2,29.82,West,270,4.0,14.0,60,0.00,,FEW055,0.01,VWS V14.01,2013-03-20 21:34:00,
2013-03-20 17:39:00,76.9,61.5,29.82,West,275,4.0,14.0,59,0.00,,FEW055,0.01,VWS V14.01,2013-03-20 21:39:00,
2013-03-20 17:44:00,76.7,61.8,29.82,WNW,290,2.0,14.0,60,0.00,,FEW055,0.01,VWS V14.01,2013-03-20 21:44:00,
2013-03-20 17:49:00,76.6,62.2,29.81,WSW,255,5.0,14.0,61,0.00,,FEW055,0.01,VWS V14.01,2013-03-20 21:49:00,
2013-03-20 17:54:00,76.5,62.1,29.81,West,262,3.0,14.0,61,0.00,,FEW055,0.01,VWS V14.01,2013-03-20 21:54:00,
2013-03-20 17:59:00,76.5,63.0,29.82,West,274,5.0,14.0,63,0.00,,FEW055,0.01,VWS V14.01,2013-03-20 21:59:00,
2013-03-20 18:04:00,76.4,62.9,29.81,WNW,295,3.0,9.0,63,0.00,,CLR,0.01,VWS V14.01,2013-03-20 22:04:00,
2013-03-20 18:09:00,76.1,61.7,29.81,SW,226,7.0,10.0,61,0.00,,CLR,0.01,VWS V14.01,2013-03-20 22:09:00,
2013-03-20 18:14:00,76.0,61.6,29.82,West,270,6.0,10.0,61,0.00,,CLR,0.01,VWS V14.01,2013-03-20 22:14:00,
2013-03-20 18:19:00,75.9,62.0,29.82,WSW,250,4.0,11.0,62,0.00,,CLR,0.01,VWS V14.01,2013-03-20 22:19:00,
2013-03-20 18:24:00,75.8,61.9,29.82,WSW,257,4.0,11.0,62,0.00,,CLR,0.01,VWS V14.01,2013-03-20 22:24:00,
2013-03-20 18:29:00,75.7,62.2,29.82,West,276,2.0,11.0,63,0.00,,CLR,0.01,VWS V14.01,2013-03-20 22:29:00,
2013-03-20 18:34:00,75.6,61.7,29.82,WSW,242,0.0,11.0,62,0.00,,CLR,0.01,VWS V14.01,2013-03-20 22:34:00,
2013-03-20 18:39:00,75.6,63.5,29.82,SW,229,0.0,11.0,66,0.00,,CLR,0.01,VWS V14.01,2013-03-20 22:39:00,
2013-03-20 18:44:00,75.4,61.9,29.82,SW,233,2.0,11.0,63,0.00,,CLR,0.01,VWS V14.01,2013-03-20 22:44:00,
2013-03-20 18:49:00,75.2,62.2,29.82,West,271,3.0,11.0,64,0.00,,CLR,0.01,VWS V14.01,2013-03-20 22:49:00,
2013-03-20 18:54:00,75.1,61.7,29.82,WSW,255,2.0,11.0,63,0.00,,CLR,0.01,VWS V14.01,2013-03-20 22:54:00,
2013-03-20 18:59:00,74.9,61.9,29.83,West,268,3.0,11.0,64,0.00,,CLR,0.01,VWS V14.01,2013-03-20 22:59:00,
2013-03-20 19:04:00,74.8,62.7,29.83,WSW,237,1.0,6.0,66,0.00,,FEW110,0.01,VWS V14.01,2013-03-20 23:04:00,
2013-03-20 19:09:00,74.6,62.5,29.84,West,273,2.0,7.0,66,0.00,,FEW110,0.01,VWS V14.01,2013-03-20 23:09:00,
2013-03-20 19:14:00,74.4,62.3,29.83,NW,311,3.0,7.0,66,0.00,,FEW110,0.01,VWS V14.01,2013-03-20 23:14:00,
2013-03-20 19:19:00,74.2,62.1,29.84,West,262,4.0,7.0,66,0.00,,FEW110,0.01,VWS V14.01,2013-03-20 23:19:00,
2013-03-20 19:24:00,73.9,62.3,29.85,SW,232,4.0,8.0,67,0.00,,FEW110,0.01,VWS V14.01,2013-03-20 23:24:00,
2013-03-20 19:29:00,73.7,61.7,29.84,WSW,253,5.0,8.0,66,0.00,,FEW110,0.01,VWS V14.01,2013-03-20 23:29:00,
2013-03-20 19:34:00,73.6,61.5,29.85,WSW,252,3.0,9.0,66,0.00,,FEW110,0.01,VWS V14.01,2013-03-20 23:34:00,
2013-03-20 19:39:00,73.5,61.5,29.84,WSW,254,2.0,9.0,66,0.00,,FEW110,0.01,VWS V14.01,2013-03-20 23:39:00,
2013-03-20 19:44:00,73.4,61.4,29.85,West,259,5.0,9.0,66,0.00,,FEW110,0.01,VWS V14.01,2013-03-20 23:44:00,
2013-03-20 19:49:00,73.3,62.5,29.85,WSW,258,2.0,9.0,69,0.00,,FEW110,0.01,VWS V14.01,2013-03-20 23:49:00,
2013-03-20 19:54:00,73.2,61.2,29.86,WSW,251,4.0,9.0,66,0.00,,FEW110,0.01,VWS V14.01,2013-03-20 23:54:00,
2013-03-20 19:59:00,73.1,61.1,29.85,West,261,5.0,9.0,66,0.00,,FEW110,0.01,VWS V14.01,2013-03-20 23:59:00,
2013-03-20 20:04:00,73.0,61.4,29.86,WSW,252,4.0,8.0,67,0.00,,FEW075,0.01,VWS V14.01,2013-03-21 00:04:00,
2013-03-20 20:09:00,72.8,60.8,29.86,West,278,4.0,10.0,66,0.00,,FEW075,0.01,VWS V14.01,2013-03-21 00:09:00,
2013-03-20 20:14:00,72.7,60.7,29.86,WSW,255,7.0,10.0,66,0.00,,FEW075,0.01,VWS V14.01,2013-03-21 00:14:00,
2013-03-20 20:19:00,72.5,60.9,29.86,WSW,254,2.0,10.0,67,0.00,,FEW075,0.01,VWS V14.01,2013-03-21 00:19:00,
2013-03-20 20:24:00,72.4,61.2,29.85,WSW,242,3.0,11.0,68,0.00,,FEW075,0.01,VWS V14.01,2013-03-21 00:24:00,
2013-03-20 20:29:00,72.3,60.7,29.86,WSW,254,3.0,11.0,67,0.00,,FEW075,0.01,VWS V14.01,2013-03-21 00:29:00,
2013-03-20 20:34:00,72.2,60.7,29.86,WSW,243,4.0,11.0,67,0.00,,FEW075,0.01,VWS V14.01,2013-03-21 00:34:00,
2013-03-20 20:39:00,72.1,60.5,29.86,WNW,290,4.0,11.0,67,0.00,,FEW075,0.01,VWS V14.01,2013-03-21 00:39:00,
2013-03-20 20:44:00,72.0,60.5,29.87,West,275,11.0,11.0,67,0.00,,FEW075,0.01,VWS V14.01,2013-03-21 00:44:00,
2013-03-20 20:49:00,72.0,60.5,29.87,West,278,10.0,13.0,67,0.00,,FEW075,0.01,VWS V14.01,2013-03-21 00:49:00,
2013-03-20 20:54:00,71.9,61.2,29.87,West,267,8.0,16.0,69,0.00,,FEW075,0.01,VWS V14.01,2013-03-21 00:54:00,
2013-03-20 20:59:00,71.8,59.8,29.87,West,265,7.0,16.0,66,0.00,,FEW075,0.01,VWS V14.01,2013-03-21 00:59:00,
2013-03-20 21:04:00,71.8,60.3,29.87,WSW,255,8.0,18.0,67,0.00,,CLR,0.01,VWS V14.01,2013-03-21 01:04:00,
2013-03-20 21:09:00,71.7,60.2,29.87,West,259,13.0,18.0,67,0.00,,CLR,0.01,VWS V14.01,2013-03-21 01:09:00,
2013-03-20 21:14:00,71.6,60.1,29.88,West,268,15.0,18.0,67,0.00,,CLR,0.01,VWS V14.01,2013-03-21 01:14:00,
2013-03-20 21:19:00,71.4,59.9,29.88,WSW,243,11.0,18.0,67,0.00,,CLR,0.01,VWS V14.01,2013-03-21 01:19:00,
2013-03-20 21:24:00,71.2,60.1,29.88,WNW,297,7.0,18.0,68,0.00,,CLR,0.01,VWS V14.01,2013-03-21 01:24:00,
2013-03-20 21:29:00,71.0,60.3,29.88,West,272,16.0,18.0,69,0.00,,CLR,0.01,VWS V14.01,2013-03-21 01:29:00,
2013-03-20 21:34:00,70.7,60.0,29.88,WNW,286,6.0,19.0,69,0.00,,CLR,0.01,VWS V14.01,2013-03-21 01:34:00,
2013-03-20 21:39:00,70.5,60.3,29.89,West,274,9.0,19.0,70,0.00,,CLR,0.01,VWS V14.01,2013-03-21 01:39:00,
2013-03-20 21:44:00,70.3,60.5,29.89,WSW,257,7.0,19.0,71,0.00,,CLR,0.01,VWS V14.01,2013-03-21 01:44:00,
2013-03-20 21:49:00,70.1,60.7,29.89,West,269,4.0,19.0,72,0.00,,CLR,0.01,VWS V14.01,2013-03-21 01:49:00,
2013-03-20 21:54:00,70.0,60.6,29.89,WSW,258,5.0,19.0,72,0.00,,CLR,0.01,VWS V14.01,2013-03-21 01:54:00,
2013-03-20 21:59:00,69.8,60.4,29.89,WNW,287,5.0,19.0,72,0.00,,CLR,0.01,VWS V14.01,2013-03-21 01:59:00,
2013-03-20 22:04:00,69.7,60.3,29.89,WNW,293,9.0,13.0,72,0.00,,BKN047,0.01,VWS V14.01,2013-03-21 02:04:00,
2013-03-20 22:09:00,69.6,60.6,29.88,WNW,284,9.0,13.0,73,0.00,,BKN047,0.01,VWS V14.01,2013-03-21 02:09:00,
2013-03-20 22:14:00,69.4,60.8,29.88,West,268,3.0,13.0,74,0.00,,BKN047,0.01,VWS V14.01,2013-03-21 02:14:00,
2013-03-20 22:19:00,69.3,60.7,29.88,West,272,4.0,13.0,74,0.00,,BKN047,0.01,VWS V14.01,2013-03-21 02:19:00,
2013-03-20 22:24:00,69.1,60.5,29.88,West,265,5.0,13.0,74,0.00,,BKN047,0.01,VWS V14.01,2013-03-21 02:24:00,
2013-03-20 22:29:00,69.1,60.8,29.87,WSW,255,7.0,13.0,75,0.00,,BKN047,0.01,VWS V14.01,2013-03-21 02:29:00,
2013-03-20 22:34:00,69.0,60.8,29.88,West,268,1.0,13.0,75,0.00,,BKN047,0.01,VWS V14.01,2013-03-21 02:34:00,
2013-03-20 22:39:00,68.9,60.7,29.87,WSW,252,2.0,13.0,75,0.00,,BKN047,0.01,VWS V14.01,2013-03-21 02:39:00,
2013-03-20 22:44:00,68.8,60.6,29.87,West,267,3.0,13.0,75,0.00,,BKN047,0.01,VWS V14.01,2013-03-21 02:44:00,
2013-03-20 22:49:00,68.7,60.8,29.88,WSW,256,4.0,13.0,76,0.00,,BKN047,0.01,VWS V14.01,2013-03-21 02:49:00,
2013-03-20 22:54:00,68.6,60.7,29.88,WSW,245,3.0,13.0,76,0.00,,BKN047,0.01,VWS V14.01,2013-03-21 02:54:00,
2013-03-20 22:59:00,68.4,60.9,29.89,West,262,2.0,13.0,77,0.00,,BKN047,0.01,VWS V14.01,2013-03-21 02:59:00,
2013-03-20 23:04:00,68.3,60.8,29.88,West,277,3.0,11.0,77,0.00,,CLR,0.01,VWS V14.01,2013-03-21 03:04:00,
2013-03-20 23:09:00,68.2,61.1,29.88,WSW,256,3.0,11.0,78,0.00,,CLR,0.01,VWS V14.01,2013-03-21 03:09:00,
2013-03-20 23:14:00,68.1,61.0,29.88,West,267,6.0,11.0,78,0.00,,CLR,0.01,VWS V14.01,2013-03-21 03:14:00,
2013-03-20 23:19:00,68.0,60.9,29.88,WSW,255,5.0,11.0,78,0.00,,CLR,0.01,VWS V14.01,2013-03-21 03:19:00,
2013-03-20 23:24:00,67.8,61.4,29.88,West,264,2.0,11.0,80,0.00,,CLR,0.01,VWS V14.01,2013-03-21 03:24:00,
2013-03-20 23:29:00,67.7,61.0,29.87,West,280,0.0,11.0,79,0.00,,CLR,0.01,VWS V14.01,2013-03-21 03:29:00,
2013-03-20 23:34:00,67.6,60.9,29.87,WNW,299,0.0,11.0,79,0.00,,CLR,0.01,VWS V14.01,2013-03-21 03:34:00,
2013-03-20 23:39:00,67.5,60.8,29.86,West,278,3.0,11.0,79,0.00,,CLR,0.01,VWS V14.01,2013-03-21 03:39:00,
2013-03-20 23:44:00,67.4,61.0,29.85,WNW,297,2.0,11.0,80,0.00,,CLR,0.01,VWS V14.01,2013-03-21 03:44:00,
2013-03-20 23:49:00,67.3,61.3,29.86,West,277,2.0,11.0,81,0.00,,CLR,0.01,VWS V14.01,2013-03-21 03:49:00,
2013-03-20 23:54:00,67.1,60.7,29.85,WNW,296,2.0,11.0,80,0.00,,CLR,0.01,VWS V14.01,2013-03-21 03:54:00,
2013-03-20 23:59:00,66.9,60.5,29.85,WNW,290,4.0,11.0,80,0.00,,CLR,0.00,VWS V14.01,2013-03-21 03:59:00,